[[{"header":{"parameterUnit":"m.s-1","parameterCategory":1,"la1":30.2991,"la2":30.254,"lo1":-89.0895,"lo2":-89.0444,"dy":0.0017,"dx":0.0017,"nx":28,"ny":28,"refTime":"2023-09-23T21:00:00:Z","depth":0,"parameterNumber":2,"parameterNumberName":"U-component_of_WINDS"},"data":[0,0,0,0,0,0,0,0,0,0,0,0,0,0,0,0,0,0,0,0,0,0,0,0,0,0,0,0,0,0,0,0,0,0,0,0,0,0,0,0,0,0,0,0,0,0,0,0,0,0,0,0,0,0,0,0,0,0,-0.9371,-0.9372,0,-0.9456,-0.9457,-0.9458,-0.9447,-0.9445,-0.9444,-0.9442,-0.9531,-0.9535,-0.9539,0,0,0,0,0,0,0,0,0,0,0,0,0,-0.9202,-0.9205,-0.9371,-0.9372,-0.9373,-0.9456,-0.9457,-0.9458,-0.9447,-0.9445,-0.9443,-0.9442,-0.953,-0.9535,-0.9539,0,0,0,0,0,0,0,0,0,0,0,0,0,-0.928,-0.9206,-0.9371,-0.9377,-0.9379,-0.9456,-0.9457,-0.9458,-0.9447,-0.9445,-0.9443,-0.9441,-0.9529,-0.9534,-0.954,-0.9616,0,0,-0.9556,-0.9559,0,0,0,0,0,0,0,0,-0.9275,-0.9286,-0.9375,-0.9377,-0.9379,-0.9438,-0.943,-0.9511,-0.9448,-0.9421,-0.9442,-0.944,-0.9502,-0.951,-0.9531,-0.962,-0.9624,-0.9557,-0.956,-0.9563,-0.9564,0,0,0,0,0,0,0,-0.927,-0.9282,-0.9405,-0.9377,-0.9379,-0.9377,-0.9386,-0.9445,-0.9473,-0.9423,-0.9423,-0.9433,-0.9503,-0.9525,-0.9533,-0.9625,-0.9557,-0.9562,-0.9565,-0.9567,-0.9783,-0.9786,0,0,0,0,0,0,-0.9263,-0.9278,-0.9402,-0.9407,-0.9321,-0.9382,-0.9392,-0.9422,-0.9472,-0.9478,-0.9435,-0.9432,-0.9517,-0.9526,-0.9536,-0.963,-0.9563,-0.9568,-0.9571,-0.9781,-0.9784,-0.9787,0,0,0,0,0,0,-0.9259,-0.9274,-0.9399,-0.9343,-0.9358,-0.9387,-0.9421,-0.9424,-0.9447,-0.948,-0.9485,-0.9452,-0.9516,-0.9528,-0.9596,-0.9632,-0.957,-0.9575,-0.9778,-0.9782,-0.9785,-0.9817,0,0,0,0,0,0,-0.9254,-0.9273,-0.9301,-0.9343,-0.9361,-0.9457,-0.9423,-0.9427,-0.9456,-0.9453,-0.9498,-0.9504,-0.9515,-0.9588,-0.9602,-0.9639,-0.958,-0.9775,-0.978,-0.9784,-0.9813,-0.9822,-0.9829,0,0,0,0,0,-0.9248,-0.9307,-0.9303,-0.9318,-0.9397,-0.9459,-0.947,-0.9481,-0.9459,-0.9488,-0.951,-0.9502,-0.9626,-0.9595,-0.961,-0.965,-0.9773,-0.9778,-0.9784,-0.981,-0.982,-0.9829,0,0,0,0,0,0,-0.9269,-0.9312,-0.9308,-0.9382,-0.9417,-0.9457,-0.9495,-0.9491,-0.9533,-0.9529,-0.9541,-0.9552,-0.9621,-0.9642,-0.9607,-0.9727,-0.9697,-0.9705,-0.9711,-0.9721,-0.9729,-0.9723,-0.9584,0,0,0,0,0,-0.9282,-0.9327,-0.9363,-0.9425,-0.9443,-0.9466,-0.9493,-0.9498,-0.9535,-0.955,-0.9577,-0.9614,-0.9661,-0.9692,-0.9737,-0.9816,-0.9827,-0.9851,-0.9858,-0.9865,-0.9873,-0.9917,-0.9929,-0.9804,-0.9804,-0.9804,0,0,-0.9309,-0.9339,-0.9367,-0.943,-0.9457,-0.9506,-0.9478,-0.953,-0.9566,-0.9558,-0.9625,-0.9646,-0.9688,-0.9762,-0.9796,-0.9782,-0.9909,-0.9872,-0.9876,-0.9881,-0.9924,-0.9936,-0.9947,-0.9808,-0.9808,-0.9807,0,0,-0.9384,-0.941,-0.9465,-0.9494,-0.9536,-0.9551,-0.9564,-0.9605,-0.9619,-0.9686,-0.9681,-0.9725,-0.9806,-0.9836,-0.9863,-0.995,-0.9945,-0.9965,-1.0006,-1.005,-1.006,-1.0068,-1.0101,-1.0113,-0.9972,-0.9972,-0.9972,0,-0.9413,-0.9485,-0.9494,-0.9547,-0.9575,-0.957,-0.9627,-0.9654,-0.9709,-0.973,-0.9712,-0.9815,-0.9843,-0.9925,-0.9946,-0.9967,-0.9984,-0.996,-1.0057,-1.0066,-1.0075,-1.0106,-1.0118,-0.9974,-0.9974,-0.9974,-0.9974,0,-0.9519,-0.9569,-0.9608,-0.9662,-0.9694,-0.9749,-0.9768,-0.98,-0.9803,-0.982,-0.9889,-0.9923,-0.9975,-0.9995,-0.9998,-1.0078,-1.0068,-1.0054,-1.0024,-1.0088,-1.0119,-1.0131,-0.9978,-0.9977,-0.9976,-0.9976,0,0,-0.9609,-0.9667,-0.9682,-0.9707,-0.9753,-0.9793,-0.9847,-0.9898,-0.9927,-0.9965,-1.0012,-1.0081,-1.0069,-1.0099,-1.0106,-1.0144,-1.0213,-1.0125,-1.0126,-1.0142,-1.0306,-1.0317,-1.0331,-1.021,-1.0212,-1.0214,-1.0303,0,-0.969,-0.9786,-0.9797,-0.9883,-0.993,-0.9926,-0.9974,-1.0009,-1.0026,-1.007,-1.009,-1.0139,-1.0118,-1.0136,-1.0174,-1.0197,-1.0247,-1.019,-1.0256,-1.0258,-1.0246,-1.0346,-1.0358,-1.044,-1.0314,-1.0316,-1.0318,0,-0.9797,-0.9838,-0.9929,-0.997,-0.999,-1.0033,-1.0082,-1.0123,-1.0162,-1.0173,-1.0207,-1.0209,-1.0267,-1.0234,-1.0315,-1.0276,-1.0304,-1.0319,-1.0323,-1.033,-1.0293,-1.0358,-1.0467,-1.048,-1.0336,-1.0335,-1.0333,0,-0.9855,-0.9933,-0.9998,-1.0019,-1.0069,-1.0099,-1.0122,-1.0159,-1.019,-1.0232,-1.0253,-1.0302,-1.0329,-1.0368,-1.0384,-1.0357,-1.0465,-1.0432,-1.0476,-1.0476,-1.05,-1.0499,-1.0616,-1.0515,-1.0515,-1.0515,-1.0515,0,-0.9945,-1.0001,-1.0026,-1.0066,-1.0129,-1.0141,-1.0204,-1.0225,-1.0259,-1.0304,-1.0303,-1.0346,-1.0364,-1.041,-1.0423,-1.0489,-1.0501,-1.0512,-1.0515,-1.0513,-1.0512,-1.0532,-1.0527,-1.0518,-1.0518,-1.0517,-1.0516,0,-1.0021,-1.004,-1.011,-1.0151,-1.0163,-1.0208,-1.0244,-1.0284,-1.0301,-1.0358,-1.0373,-1.04,-1.0455,-1.0474,-1.054,-1.0549,-1.0626,-1.0624,-1.0613,-1.0614,-1.0658,-1.0654,-1.0793,-1.0813,-1.0698,-1.0699,-1.07,0,-1.0077,-1.012,-1.0166,-1.0196,-1.0219,-1.0267,-1.0299,-1.0313,-1.0346,-1.0395,-1.0429,-1.0483,-1.0527,-1.0614,-1.0641,-1.0692,-1.0691,-1.0737,-1.0699,-1.0696,-1.0694,-1.0692,-1.0697,-1.0744,-1.0745,-1.0746,-1.0747,0,-1.0176,-1.0183,-1.0228,-1.0276,-1.0314,-1.0353,-1.039,-1.0415,-1.0435,-1.0472,-1.0528,-1.0562,-1.0629,-1.0683,-1.0736,-1.076,-1.0758,-1.0759,-1.0772,-1.0771,-1.0763,-1.0769,-1.0634,-1.0755,-1.0755,-1.0754,-1.0754,-1.0753,-1.0245,-1.0284,-1.0323,-1.0373,-1.0403,-1.0438,-1.0478,-1.05,-1.0546,-1.0602,-1.0608,-1.0668,-1.0708,-1.0778,-1.0805,-1.0853,-1.0841,-1.086,-1.0865,-1.0869,-1.0873,-1.0754,-1.0863,-1.0862,-1.0862,-1.0862,-1.0862,0,-1.0345,-1.037,-1.0416,-1.0469,-1.0509,-1.0502,-1.0544,-1.0578,-1.0631,-1.0668,-1.0711,-1.0776,-1.0829,-1.086,-1.0913,-1.0946,-1.0947,-1.096,-1.0958,-1.0964,-1.088,-1.0864,-1.0959,-1.0959,-1.0959,-1.0958,-1.0958,-1.0958,-1.0402,-1.0468,-1.048,-1.0561,-1.0586,-1.0644,-1.0668,-1.0702,-1.0732,-1.0804,-1.0847,-1.0867,-1.0903,-1.0959,-1.1008,-1.1016,-1.1036,-1.1051,-1.1058,-1.098,-1.097,-1.096,-1.0945,-1.1055,-1.1055,-1.1138,-1.1139,-1.114]},{"header":{"parameterUnit":"m.s-1","parameterCategory":1,"la1":30.2991,"la2":30.254,"lo1":-89.0895,"lo2":-89.0444,"dy":0.0017,"dx":0.0017,"nx":28,"ny":28,"refTime":"2023-09-23T21:00:00:Z","depth":0,"parameterNumber":3,"parameterNumberName":"V-component_of_WINDS"},"data":[0,0,0,0,0,0,0,0,0,0,0,0,0,0,0,0,0,0,0,0,0,0,0,0,0,0,0,0,0,0,0,0,0,0,0,0,0,0,0,0,0,0,0,0,0,0,0,0,0,0,0,0,0,0,0,0,0,0,2.4081,2.408,0,2.4024,2.4023,2.4022,2.4017,2.4018,2.4018,2.4019,2.3954,2.3952,2.3949,0,0,0,0,0,0,0,0,0,0,0,0,0,2.418,2.4178,2.4081,2.408,2.4079,2.4024,2.4023,2.4022,2.4017,2.4018,2.4018,2.4019,2.3955,2.3952,2.3949,0,0,0,0,0,0,0,0,0,0,0,0,0,2.4131,2.4177,2.4081,2.407,2.4069,2.4024,2.4023,2.4022,2.4017,2.4018,2.4019,2.4019,2.3956,2.3952,2.3949,2.3909,0,0,2.3938,2.3937,0,0,0,0,0,0,0,0,2.4134,2.4127,2.4073,2.4071,2.4069,2.4029,2.4034,2.3984,2.4016,2.4036,2.4019,2.402,2.3978,2.3972,2.3959,2.3906,2.3903,2.3938,2.3936,2.3934,2.3933,0,0,0,0,0,0,0,2.4137,2.413,2.4058,2.4072,2.407,2.4066,2.4061,2.4024,2.4002,2.4035,2.4034,2.4028,2.3977,2.3963,2.3958,2.3902,2.3938,2.3935,2.3933,2.3931,2.3811,2.381,0,0,0,0,0,0,2.4143,2.4133,2.406,2.4056,2.4105,2.4064,2.4057,2.404,2.4003,2.3998,2.4027,2.4028,2.3968,2.3962,2.3955,2.3904,2.3934,2.3931,2.3929,2.3812,2.3811,2.3809,0,0,0,0,0,0,2.4146,2.4137,2.4062,2.4094,2.4085,2.4061,2.4042,2.4039,2.4025,2.3997,2.3992,2.4017,2.3969,2.396,2.392,2.3902,2.393,2.3926,2.3813,2.3811,2.381,2.3803,0,0,0,0,0,0,2.4148,2.4138,2.4124,2.4094,2.4083,2.403,2.4041,2.4037,2.402,2.402,2.3986,2.3982,2.3969,2.3926,2.3917,2.3898,2.3924,2.3815,2.3812,2.381,2.3805,2.3801,2.3798,0,0,0,0,0,2.4152,2.4123,2.4123,2.4114,2.4065,2.4029,2.4022,2.401,2.4018,2.4003,2.3985,2.3983,2.3906,2.3922,2.3912,2.3891,2.3816,2.3813,2.3811,2.3806,2.3802,2.3798,0,0,0,0,0,0,2.4148,2.4119,2.4118,2.4079,2.4057,2.4028,2.4008,2.4006,2.3979,2.398,2.3964,2.3956,2.3916,2.39,2.3918,2.385,2.3862,2.3857,2.3861,2.3857,2.3854,2.3857,2.3921,0,0,0,0,0,2.4144,2.4119,2.4093,2.4061,2.405,2.4031,2.4015,2.4008,2.3983,2.3972,2.3952,2.3926,2.3896,2.3876,2.3847,2.3804,2.3794,2.3784,2.3781,2.3779,2.3774,2.3748,2.3742,2.3801,2.3801,2.3801,0,0,2.4132,2.4113,2.4098,2.406,2.4042,2.4014,2.4023,2.3994,2.3972,2.3967,2.3928,2.3912,2.3882,2.384,2.382,2.3825,2.3756,2.3776,2.3774,2.377,2.3744,2.3739,2.3734,2.3799,2.38,2.38,0,0,2.4097,2.4081,2.4052,2.4034,2.4007,2.3995,2.3988,2.3959,2.3949,2.391,2.3906,2.388,2.3829,2.3807,2.379,2.3747,2.3743,2.3738,2.372,2.3695,2.369,2.3686,2.3668,2.3662,2.3734,2.3734,2.3734,0,2.4086,2.4046,2.4037,2.4007,2.399,2.3987,2.3956,2.3938,2.3902,2.3889,2.3896,2.3832,2.3812,2.3764,2.3754,2.374,2.373,2.374,2.3692,2.3688,2.3684,2.3666,2.366,2.3734,2.3734,2.3734,2.3734,0,2.4032,2.4004,2.3983,2.3951,2.3931,2.3901,2.3886,2.3867,2.3862,2.3848,2.3808,2.3784,2.3749,2.3738,2.3732,2.3688,2.3692,2.3696,2.3707,2.3677,2.3661,2.3654,2.3733,2.3733,2.3733,2.3733,0,0,2.399,2.3954,2.3946,2.3931,2.3901,2.3878,2.3848,2.3816,2.3799,2.3775,2.3747,2.3705,2.3708,2.3688,2.368,2.3658,2.3623,2.3665,2.3663,2.3655,2.3571,2.3566,2.3558,2.3622,2.3621,2.362,2.3572,0,2.3949,2.3896,2.3887,2.384,2.3813,2.381,2.3783,2.3761,2.3748,2.3722,2.3707,2.3676,2.3684,2.3672,2.3651,2.3632,2.3606,2.3636,2.3593,2.3591,2.3597,2.355,2.3545,2.3501,2.3566,2.3565,2.3564,0,2.3894,2.387,2.382,2.3794,2.3782,2.3758,2.3728,2.3704,2.3678,2.367,2.3648,2.3643,2.3609,2.3624,2.3575,2.3596,2.3578,2.3566,2.3564,2.3557,2.3573,2.3538,2.3487,2.3479,2.3555,2.3555,2.3556,0,2.3865,2.382,2.3784,2.3771,2.3741,2.3723,2.3709,2.3685,2.3666,2.364,2.3627,2.3597,2.3579,2.3554,2.3539,2.3553,2.3491,2.3505,2.348,2.348,2.3464,2.3465,2.3406,2.3459,2.3459,2.3459,2.3459,0,2.3818,2.3787,2.3771,2.3748,2.3712,2.3703,2.3667,2.3653,2.3632,2.3605,2.3602,2.3576,2.356,2.3532,2.352,2.348,2.3473,2.3463,2.346,2.3461,2.3462,2.3447,2.3448,2.3457,2.3458,2.3458,2.3458,0,2.3778,2.3767,2.3727,2.3702,2.3695,2.3669,2.3646,2.3623,2.3612,2.3577,2.3569,2.3549,2.3515,2.35,2.3458,2.345,2.3403,2.3404,2.3412,2.341,2.3385,2.3386,2.3311,2.3299,2.3363,2.3362,2.3362,0,2.3747,2.3723,2.3696,2.3679,2.3665,2.3637,2.3619,2.3609,2.3589,2.3558,2.3538,2.3506,2.3478,2.3424,2.3404,2.3372,2.3369,2.3345,2.3364,2.3366,2.3365,2.3365,2.3361,2.334,2.334,2.3339,2.3339,0,2.3693,2.3689,2.3663,2.3635,2.3613,2.3591,2.3568,2.3554,2.354,2.3518,2.3484,2.3463,2.3422,2.3387,2.3354,2.3337,2.3334,2.3334,2.3326,2.3325,2.333,2.3324,2.3399,2.3335,2.3335,2.3335,2.3336,2.3336,2.3654,2.3632,2.361,2.3581,2.3564,2.3543,2.3519,2.3506,2.3478,2.3444,2.344,2.3404,2.3378,2.3333,2.3316,2.3286,2.3291,2.328,2.3276,2.3273,2.327,2.3338,2.328,2.328,2.328,2.328,2.328,0,2.3596,2.3583,2.3557,2.3526,2.3503,2.3506,2.3482,2.3461,2.343,2.3408,2.3381,2.3342,2.331,2.3288,2.3255,2.3235,2.3232,2.3226,2.3225,2.3221,2.3268,2.3277,2.3228,2.3228,2.3228,2.3228,2.3228,2.3228,2.3564,2.3526,2.3519,2.3472,2.3458,2.3424,2.3409,2.3389,2.3371,2.3328,2.3302,2.329,2.3267,2.3232,2.3201,2.3196,2.3182,2.3174,2.3168,2.3212,2.3218,2.3223,2.3231,2.3173,2.3172,2.3123,2.3122,2.3122]}]]